Time,TemperatureF,DewpointF,PressureIn,WindDirection,WindDirectionDegrees,WindSpeedMPH,WindSpeedGustMPH,Humidity,HourlyPrecipIn,Conditions,Clouds,dailyrainin,SoftwareType,DateUTC
2013-11-07 00:00:00,63.7,59.6,30.11,SSW,211,0.0,0.0,86,0.00,,,0.00,Meteorologica,2013-11-07 05:00:00,
2013-11-07 00:01:00,63.8,59.7,30.11,SSW,211,0.0,0.0,86,0.00,,,0.00,Meteorologica,2013-11-07 05:01:00,
2013-11-07 00:02:00,63.5,59.4,30.11,SSW,211,0.0,0.0,86,0.00,,,0.00,Meteorologica,2013-11-07 05:02:00,
2013-11-07 00:03:00,63.8,59.8,30.11,SSW,211,0.0,0.0,86,0.00,,,0.00,Meteorologica,2013-11-07 05:03:00,
2013-11-07 00:04:00,48.0,36.5,30.14,NNW,328,0.0,8.2,64,0.00,,,0.00,Meteorologica,2013-11-07 05:04:00,
2013-11-07 00:05:00,48.0,36.7,30.14,North,351,2.9,6.1,64,0.00,,,0.00,Meteorologica,2013-11-07 05:05:00,
2013-11-07 00:07:00,63.6,59.7,30.11,SSW,211,0.0,0.0,87,0.00,,,0.00,Meteorologica,2013-11-07 05:07:00,
2013-11-07 00:13:00,63.6,60.4,30.11,SSW,211,0.0,0.0,89,0.00,,,0.00,Meteorologica,2013-11-07 05:13:00,
2013-11-07 00:18:00,63.5,60.8,30.11,SSW,211,0.0,0.0,91,0.00,,,0.00,Meteorologica,2013-11-07 05:18:00,
2013-11-07 00:23:00,63.3,61.2,30.11,SSW,211,0.0,0.0,92,0.00,,,0.00,Meteorologica,2013-11-07 05:23:00,
2013-11-07 00:28:00,63.4,61.5,30.10,SSW,211,0.0,0.0,93,0.00,,,0.00,Meteorologica,2013-11-07 05:28:00,
2013-11-07 00:33:00,63.3,61.9,30.10,SSW,211,0.0,0.0,95,0.00,,,0.00,Meteorologica,2013-11-07 05:33:00,
2013-11-07 00:38:00,63.2,62.5,30.10,SSW,211,0.0,0.0,97,0.00,,,0.00,Meteorologica,2013-11-07 05:38:00,
2013-11-07 00:43:00,63.1,63.1,30.10,SSW,211,0.0,0.0,100,0.00,,,0.00,Meteorologica,2013-11-07 05:43:00,
2013-11-07 00:48:00,63.1,63.1,30.10,SSW,211,0.0,0.0,100,0.00,,,0.00,Meteorologica,2013-11-07 05:48:00,
2013-11-07 00:53:00,63.0,63.0,30.10,SSW,211,0.0,0.0,100,0.00,,,0.00,Meteorologica,2013-11-07 05:53:00,
2013-11-07 00:58:00,62.9,62.9,30.09,SSW,211,0.0,0.0,100,0.01,,,0.01,Meteorologica,2013-11-07 05:58:00,
2013-11-07 01:03:00,62.7,62.7,30.09,SSW,211,0.0,0.0,100,0.02,,,0.02,Meteorologica,2013-11-07 06:03:00,
2013-11-07 01:09:00,62.5,62.5,30.09,SSW,211,0.0,0.0,100,0.02,,,0.02,Meteorologica,2013-11-07 06:09:00,
2013-11-07 01:14:00,62.5,62.5,30.09,SSW,202,2.1,2.1,100,0.03,,,0.03,Meteorologica,2013-11-07 06:14:00,
2013-11-07 01:19:00,62.4,62.4,30.09,SSW,206,2.5,3.3,100,0.04,,,0.04,Meteorologica,2013-11-07 06:19:00,
2013-11-07 01:24:00,62.1,62.1,30.09,SSW,211,1.3,4.1,100,0.05,,,0.05,Meteorologica,2013-11-07 06:24:00,
2013-11-07 01:29:00,61.9,61.9,30.09,ESE,112,1.4,5.2,100,0.06,,,0.06,Meteorologica,2013-11-07 06:29:00,
2013-11-07 01:33:00,61.8,61.8,30.09,SE,128,1.0,3.6,100,0.07,,,0.07,Meteorologica,2013-11-07 06:33:00,
2013-11-07 02:00:00,61.4,61.4,30.10,SW,227,2.4,2.4,100,0.18,,,0.19,Meteorologica,2013-11-07 07:00:00,
2013-11-07 02:05:00,61.3,61.3,30.10,SSW,197,0.0,4.5,100,0.19,,,0.21,Meteorologica,2013-11-07 07:05:00,
2013-11-07 02:10:00,61.2,61.2,30.10,SSW,197,0.0,4.3,100,0.19,,,0.22,Meteorologica,2013-11-07 07:10:00,
2013-11-07 02:15:00,61.2,61.2,30.10,SSW,197,0.0,0.0,100,0.20,,,0.24,Meteorologica,2013-11-07 07:15:00,
2013-11-07 02:20:00,61.2,61.2,30.10,SSW,197,0.0,0.0,100,0.20,,,0.25,Meteorologica,2013-11-07 07:20:00,
2013-11-07 02:26:00,61.1,61.1,30.09,SSW,197,0.0,0.0,100,0.22,,,0.28,Meteorologica,2013-11-07 07:26:00,
2013-11-07 02:31:00,61.3,61.3,30.09,SSW,197,0.0,0.0,100,0.23,,,0.30,Meteorologica,2013-11-07 07:31:00,
2013-11-07 02:36:00,61.1,61.1,30.09,SSW,197,0.0,0.0,100,0.24,,,0.32,Meteorologica,2013-11-07 07:36:00,
2013-11-07 02:41:00,61.0,61.0,30.09,SSW,197,0.0,0.0,100,0.24,,,0.33,Meteorologica,2013-11-07 07:41:00,
2013-11-07 02:47:00,61.2,61.2,30.09,South,189,0.0,1.3,100,0.25,,,0.35,Meteorologica,2013-11-07 07:47:00,
2013-11-07 02:52:00,61.2,61.2,30.09,South,189,0.0,0.0,100,0.23,,,0.35,Meteorologica,2013-11-07 07:52:00,
2013-11-07 02:57:00,61.1,61.1,30.09,South,189,0.0,0.0,100,0.18,,,0.36,Meteorologica,2013-11-07 07:57:00,
2013-11-07 03:02:00,61.2,61.2,30.09,South,170,0.0,2.9,100,0.17,,,0.37,Meteorologica,2013-11-07 08:02:00,
2013-11-07 03:07:00,61.2,61.1,30.07,South,170,0.0,0.0,100,0.16,,,0.38,Meteorologica,2013-11-07 08:07:00,
2013-11-07 03:13:00,60.9,60.9,30.07,South,170,0.0,0.0,100,0.15,,,0.38,Meteorologica,2013-11-07 08:13:00,
2013-11-07 03:18:00,61.1,61.1,30.07,South,170,0.0,0.0,100,0.14,,,0.39,Meteorologica,2013-11-07 08:18:00,
2013-11-07 03:23:00,61.0,61.0,30.06,South,170,0.0,0.0,100,0.11,,,0.39,Meteorologica,2013-11-07 08:23:00,
2013-11-07 03:28:00,61.1,61.1,30.06,South,170,0.0,0.0,100,0.09,,,0.39,Meteorologica,2013-11-07 08:28:00,
2013-11-07 03:34:00,60.9,60.9,30.07,South,170,0.0,0.0,100,0.07,,,0.39,Meteorologica,2013-11-07 08:34:00,
2013-11-07 03:39:00,61.0,61.0,30.07,South,170,0.0,0.0,100,0.06,,,0.39,Meteorologica,2013-11-07 08:39:00,
2013-11-07 03:44:00,61.0,61.0,30.07,South,170,0.0,0.0,100,0.05,,,0.39,Meteorologica,2013-11-07 08:44:00,
2013-11-07 03:49:00,61.0,61.0,30.07,South,170,0.0,0.0,100,0.04,,,0.39,Meteorologica,2013-11-07 08:49:00,
2013-11-07 03:54:00,60.8,60.8,30.07,SSW,206,0.3,0.0,100,0.04,,,0.40,Meteorologica,2013-11-07 08:54:00,
2013-11-07 04:00:00,61.0,61.0,30.07,South,172,0.0,3.0,100,0.03,,,0.40,Meteorologica,2013-11-07 09:00:00,
2013-11-07 04:05:00,60.9,60.9,30.06,South,172,0.0,1.4,100,0.02,,,0.40,Meteorologica,2013-11-07 09:05:00,
2013-11-07 04:10:00,60.9,60.9,30.07,South,172,0.0,0.0,100,0.02,,,0.40,Meteorologica,2013-11-07 09:10:00,
2013-11-07 04:15:00,60.9,60.9,30.07,SSW,195,1.2,0.0,100,0.01,,,0.40,Meteorologica,2013-11-07 09:15:00,
2013-11-07 04:20:00,60.9,60.9,30.07,SW,214,0.1,3.0,100,0.02,,,0.41,Meteorologica,2013-11-07 09:20:00,
2013-11-07 04:25:00,61.0,61.0,30.07,SSW,211,0.0,1.6,100,0.03,,,0.42,Meteorologica,2013-11-07 09:25:00,
2013-11-07 04:31:00,60.8,60.8,30.07,SSW,211,0.0,0.0,100,0.04,,,0.43,Meteorologica,2013-11-07 09:31:00,
2013-11-07 04:36:00,61.0,61.0,30.06,SSW,211,0.0,0.0,100,0.04,,,0.43,Meteorologica,2013-11-07 09:36:00,
2013-11-07 04:41:00,60.9,60.9,30.06,SSW,211,0.0,0.0,100,0.05,,,0.44,Meteorologica,2013-11-07 09:41:00,
2013-11-07 04:46:00,61.0,61.0,30.06,SSW,211,0.0,0.0,100,0.06,,,0.45,Meteorologica,2013-11-07 09:46:00,
2013-11-07 04:51:00,60.9,60.9,30.06,SSW,211,0.0,0.0,100,0.05,,,0.45,Meteorologica,2013-11-07 09:51:00,
2013-11-07 04:57:00,60.8,60.8,30.07,SSW,211,0.0,0.0,100,0.06,,,0.46,Meteorologica,2013-11-07 09:57:00,
2013-11-07 05:02:00,60.9,60.9,30.07,SSW,211,0.0,0.0,100,0.06,,,0.46,Meteorologica,2013-11-07 10:02:00,
2013-11-07 05:07:00,60.9,60.9,30.07,SSW,211,0.0,0.0,100,0.06,,,0.46,Meteorologica,2013-11-07 10:07:00,
2013-11-07 05:12:00,60.7,60.7,30.07,SSW,211,0.0,0.0,100,0.06,,,0.46,Meteorologica,2013-11-07 10:12:00,
2013-11-07 05:18:00,60.9,60.9,30.07,SSW,211,0.0,0.0,100,0.07,,,0.47,Meteorologica,2013-11-07 10:18:00,
2013-11-07 05:23:00,60.9,60.9,30.08,SSW,211,0.0,0.0,100,0.05,,,0.47,Meteorologica,2013-11-07 10:23:00,
2013-11-07 05:28:00,60.8,60.8,30.08,SE,138,0.0,1.7,100,0.05,,,0.48,Meteorologica,2013-11-07 10:28:00,
2013-11-07 05:33:00,61.0,61.0,30.08,SE,138,0.0,1.6,100,0.06,,,0.49,Meteorologica,2013-11-07 10:33:00,
2013-11-07 05:38:00,61.0,61.0,30.08,SE,138,0.0,0.0,100,0.05,,,0.49,Meteorologica,2013-11-07 10:38:00,
2013-11-07 05:43:00,60.6,60.6,30.09,NE,39,2.3,5.5,100,0.05,,,0.50,Meteorologica,2013-11-07 10:43:00,
2013-11-07 05:48:00,59.1,59.1,30.09,North,9,1.5,6.2,100,0.06,,,0.51,Meteorologica,2013-11-07 10:48:00,
2013-11-07 05:54:00,57.9,57.9,30.10,North,9,0.0,5.6,100,0.06,,,0.51,Meteorologica,2013-11-07 10:54:00,
2013-11-07 05:59:00,57.1,57.1,30.10,North,9,0.0,0.0,100,0.05,,,0.51,Meteorologica,2013-11-07 10:59:00,
2013-11-07 06:04:00,56.1,56.1,30.10,North,9,0.0,0.0,100,0.05,,,0.51,Meteorologica,2013-11-07 11:04:00,
2013-11-07 06:10:00,55.3,55.3,30.11,North,9,0.0,0.0,100,0.05,,,0.51,Meteorologica,2013-11-07 11:10:00,
2013-11-07 06:15:00,54.7,54.7,30.11,North,9,0.0,0.0,100,0.04,,,0.51,Meteorologica,2013-11-07 11:15:00,
2013-11-07 06:20:00,54.5,54.5,30.11,North,9,0.0,0.0,100,0.04,,,0.51,Meteorologica,2013-11-07 11:20:00,
2013-11-07 06:26:00,54.3,54.3,30.11,North,9,0.0,0.0,100,0.03,,,0.51,Meteorologica,2013-11-07 11:26:00,
2013-11-07 06:31:00,54.0,54.0,30.11,North,9,0.0,0.0,100,0.02,,,0.51,Meteorologica,2013-11-07 11:31:00,
2013-11-07 06:34:00,53.9,53.9,30.11,North,9,0.0,0.0,100,0.02,,,0.51,Meteorologica,2013-11-07 11:34:00,
2013-11-07 06:39:00,53.7,53.7,30.12,North,9,0.0,0.0,100,0.01,,,0.51,Meteorologica,2013-11-07 11:39:00,
2013-11-07 06:44:00,53.6,53.6,30.12,North,9,0.0,0.0,100,0.01,,,0.51,Meteorologica,2013-11-07 11:44:00,
2013-11-07 06:49:00,53.6,53.6,30.12,North,9,0.0,0.0,100,0.00,,,0.51,Meteorologica,2013-11-07 11:49:00,
2013-11-07 06:55:00,53.6,53.6,30.13,North,9,0.0,0.0,100,0.00,,,0.51,Meteorologica,2013-11-07 11:55:00,
2013-11-07 07:00:00,53.6,53.6,30.13,North,9,0.0,0.0,100,0.00,,,0.51,Meteorologica,2013-11-07 12:00:00,
2013-11-07 07:05:00,53.7,53.7,30.13,North,9,0.0,0.0,100,0.00,,,0.51,Meteorologica,2013-11-07 12:05:00,
2013-11-07 07:11:00,53.5,53.5,30.13,North,9,0.0,0.0,100,0.00,,,0.51,Meteorologica,2013-11-07 12:11:00,
2013-11-07 07:16:00,53.4,53.4,30.13,North,9,0.0,0.0,100,0.00,,,0.51,Meteorologica,2013-11-07 12:16:00,
2013-11-07 07:21:00,53.4,53.4,30.13,North,9,0.0,0.0,100,0.00,,,0.51,Meteorologica,2013-11-07 12:21:00,
2013-11-07 07:27:00,53.1,53.1,30.14,North,9,0.0,0.0,100,0.00,,,0.51,Meteorologica,2013-11-07 12:27:00,
2013-11-07 07:32:00,53.0,53.0,30.14,North,9,0.0,0.0,100,0.00,,,0.51,Meteorologica,2013-11-07 12:32:00,
2013-11-07 07:37:00,52.7,52.7,30.14,North,9,0.0,0.0,100,0.00,,,0.51,Meteorologica,2013-11-07 12:37:00,
2013-11-07 07:42:00,52.4,52.4,30.15,North,9,0.0,0.0,100,0.00,,,0.51,Meteorologica,2013-11-07 12:42:00,
2013-11-07 07:48:00,52.2,52.2,30.15,North,9,0.0,0.0,100,0.00,,,0.51,Meteorologica,2013-11-07 12:48:00,
2013-11-07 07:53:00,52.2,52.2,30.16,North,9,0.0,0.0,100,0.00,,,0.51,Meteorologica,2013-11-07 12:53:00,
2013-11-07 07:58:00,52.0,52.0,30.16,North,9,0.0,0.0,100,0.00,,,0.51,Meteorologica,2013-11-07 12:58:00,
2013-11-07 08:03:00,51.9,51.9,30.16,West,259,0.0,4.3,100,0.00,,,0.51,Meteorologica,2013-11-07 13:03:00,
2013-11-07 08:08:00,51.7,51.7,30.17,NW,310,0.0,7.4,100,0.00,,,0.51,Meteorologica,2013-11-07 13:08:00,
2013-11-07 08:13:00,51.2,51.2,30.19,NNE,22,3.4,6.4,100,0.00,,,0.51,Meteorologica,2013-11-07 13:13:00,
2013-11-07 08:18:00,50.8,50.8,30.19,NNE,28,0.0,7.6,100,0.00,,,0.51,Meteorologica,2013-11-07 13:18:00,
2013-11-07 08:23:00,50.4,50.4,30.19,NNE,28,0.0,0.0,100,0.00,,,0.51,Meteorologica,2013-11-07 13:23:00,
2013-11-07 08:28:00,50.2,50.2,30.19,NNE,28,0.0,0.0,100,0.00,,,0.51,Meteorologica,2013-11-07 13:28:00,
2013-11-07 08:33:00,50.0,50.0,30.19,NNE,28,0.0,0.0,100,0.00,,,0.51,Meteorologica,2013-11-07 13:33:00,
2013-11-07 08:38:00,50.2,50.2,30.20,NE,42,2.1,0.0,100,0.00,,,0.51,Meteorologica,2013-11-07 13:38:00,
2013-11-07 08:43:00,50.2,50.2,30.20,NNE,16,2.5,5.1,100,0.00,,,0.51,Meteorologica,2013-11-07 13:43:00,
2013-11-07 08:48:00,50.0,50.0,30.21,NE,37,3.0,7.4,100,0.00,,,0.51,Meteorologica,2013-11-07 13:48:00,
2013-11-07 08:53:00,49.8,49.8,30.21,NE,43,3.3,7.5,100,0.00,,,0.51,Meteorologica,2013-11-07 13:53:00,
2013-11-07 08:59:00,49.6,49.6,30.22,NE,36,0.0,6.9,100,0.00,,,0.51,Meteorologica,2013-11-07 13:59:00,
2013-11-07 09:04:00,49.2,49.2,30.22,NE,36,0.0,0.0,100,0.00,,,0.51,Meteorologica,2013-11-07 14:04:00,
2013-11-07 09:09:00,49.1,49.1,30.22,NW,319,0.0,6.8,100,0.00,,,0.51,Meteorologica,2013-11-07 14:09:00,
2013-11-07 09:14:00,49.0,49.0,30.23,NE,47,0.0,7.3,100,0.00,,,0.51,Meteorologica,2013-11-07 14:14:00,
2013-11-07 09:19:00,48.7,48.7,30.23,SE,124,1.0,4.7,100,0.00,,,0.51,Meteorologica,2013-11-07 14:19:00,
2013-11-07 09:24:00,48.5,48.5,30.23,NNE,21,0.1,7.1,100,0.00,,,0.51,Meteorologica,2013-11-07 14:24:00,
2013-11-07 09:30:00,48.6,48.6,30.23,WNW,293,0.0,7.6,100,0.00,,,0.51,Meteorologica,2013-11-07 14:30:00,
2013-11-07 09:35:00,48.6,48.6,30.23,NW,307,1.2,0.0,100,0.00,,,0.51,Meteorologica,2013-11-07 14:35:00,
2013-11-07 09:40:00,48.8,48.8,30.24,NE,47,1.6,6.6,100,0.00,,,0.51,Meteorologica,2013-11-07 14:40:00,
2013-11-07 09:45:00,48.7,48.7,30.24,NNE,14,3.2,6.0,100,0.00,,,0.51,Meteorologica,2013-11-07 14:45:00,
2013-11-07 09:50:00,48.7,48.7,30.24,NW,314,0.3,9.4,100,0.00,,,0.51,Meteorologica,2013-11-07 14:50:00,
2013-11-07 09:55:00,48.5,47.7,30.24,ENE,62,2.6,8.9,97,0.00,,,0.51,Meteorologica,2013-11-07 14:55:00,
2013-11-07 10:00:00,48.5,48.1,30.25,NNE,33,1.9,7.8,98,0.00,,,0.51,Meteorologica,2013-11-07 15:00:00,
2013-11-07 10:05:00,48.4,47.4,30.25,West,272,1.6,6.1,96,0.00,,,0.51,Meteorologica,2013-11-07 15:05:00,
2013-11-07 10:10:00,48.4,46.5,30.25,ENE,61,0.7,8.6,93,0.00,,,0.51,Meteorologica,2013-11-07 15:10:00,
2013-11-07 10:15:00,48.4,46.7,30.26,North,7,0.7,9.7,94,0.00,,,0.51,Meteorologica,2013-11-07 15:15:00,
2013-11-07 10:20:00,48.7,46.5,30.26,ENE,59,0.4,8.4,92,0.00,,,0.51,Meteorologica,2013-11-07 15:20:00,
2013-11-07 10:25:00,48.6,44.5,30.26,NE,37,4.6,6.4,85,0.00,,,0.51,Meteorologica,2013-11-07 15:25:00,
2013-11-07 10:30:00,48.3,43.8,30.27,NNE,18,4.1,8.7,84,0.00,,,0.51,Meteorologica,2013-11-07 15:30:00,
2013-11-07 10:35:00,48.0,44.3,30.27,East,80,3.5,8.9,87,0.00,,,0.51,Meteorologica,2013-11-07 15:35:00,
2013-11-07 10:40:00,48.0,44.3,30.27,NE,43,2.6,7.8,87,0.00,,,0.51,Meteorologica,2013-11-07 15:40:00,
2013-11-07 10:45:00,47.9,44.0,30.26,North,357,1.4,7.1,86,0.00,,,0.51,Meteorologica,2013-11-07 15:45:00,
2013-11-07 10:50:00,48.5,46.1,30.26,West,275,0.7,6.1,91,0.00,,,0.51,Meteorologica,2013-11-07 15:50:00,
2013-11-07 10:55:00,48.7,42.2,30.26,NE,38,3.3,8.6,78,0.00,,,0.51,Meteorologica,2013-11-07 15:55:00,
2013-11-07 11:00:00,48.8,43.3,30.26,NE,56,3.7,8.6,81,0.00,,,0.51,Meteorologica,2013-11-07 16:00:00,
2013-11-07 11:05:00,48.8,42.9,30.27,NNE,29,1.6,8.2,79,0.00,,,0.51,Meteorologica,2013-11-07 16:05:00,
2013-11-07 11:10:00,48.9,43.2,30.27,NNE,19,3.0,10.2,80,0.00,,,0.51,Meteorologica,2013-11-07 16:10:00,
2013-11-07 11:15:00,48.6,42.0,30.27,NNE,28,2.7,7.1,77,0.00,,,0.51,Meteorologica,2013-11-07 16:15:00,
2013-11-07 11:20:00,48.4,41.0,30.27,ENE,69,3.8,8.4,75,0.00,,,0.51,Meteorologica,2013-11-07 16:20:00,
2013-11-07 11:25:00,48.4,40.7,30.27,NNE,30,3.5,8.2,74,0.00,,,0.51,Meteorologica,2013-11-07 16:25:00,
2013-11-07 11:30:00,48.4,40.7,30.27,NE,50,3.5,6.2,74,0.00,,,0.51,Meteorologica,2013-11-07 16:30:00,
2013-11-07 11:35:00,48.5,41.2,30.27,NE,56,0.9,8.4,75,0.00,,,0.51,Meteorologica,2013-11-07 16:35:00,
2013-11-07 11:40:00,49.0,41.5,30.27,NNE,28,0.3,12.6,75,0.00,,,0.51,Meteorologica,2013-11-07 16:40:00,
2013-11-07 11:45:00,48.9,40.6,30.27,NNE,32,3.4,7.3,72,0.00,,,0.51,Meteorologica,2013-11-07 16:45:00,
2013-11-07 11:50:00,48.8,40.7,30.27,NW,313,2.1,7.0,73,0.00,,,0.51,Meteorologica,2013-11-07 16:50:00,
2013-11-07 11:55:00,48.7,40.8,30.27,NE,52,2.2,10.1,73,0.00,,,0.51,Meteorologica,2013-11-07 16:55:00,
2013-11-07 12:00:00,48.9,40.0,30.27,NE,36,5.0,6.1,71,0.00,,,0.51,Meteorologica,2013-11-07 17:00:00,
2013-11-07 12:05:00,48.9,39.8,30.27,NE,47,0.9,8.9,70,0.00,,,0.51,Meteorologica,2013-11-07 17:05:00,
2013-11-07 12:10:00,49.0,40.5,30.27,East,90,1.1,7.2,72,0.00,,,0.51,Meteorologica,2013-11-07 17:10:00,
2013-11-07 12:15:00,49.0,40.0,30.26,ENE,74,0.0,4.7,70,0.00,,,0.51,Meteorologica,2013-11-07 17:15:00,
2013-11-07 12:20:00,48.8,40.0,30.26,NE,45,2.8,8.1,71,0.00,,,0.51,Meteorologica,2013-11-07 17:20:00,
2013-11-07 12:25:00,48.9,40.4,30.26,NNE,28,2.6,5.0,72,0.00,,,0.51,Meteorologica,2013-11-07 17:25:00,
2013-11-07 12:30:00,48.8,39.8,30.26,NE,53,3.3,4.7,70,0.00,,,0.51,Meteorologica,2013-11-07 17:30:00,
2013-11-07 12:35:00,48.8,39.6,30.26,North,7,3.0,5.0,70,0.00,,,0.51,Meteorologica,2013-11-07 17:35:00,
2013-11-07 12:40:00,49.1,39.5,30.25,East,84,1.6,6.8,69,0.00,,,0.51,Meteorologica,2013-11-07 17:40:00,
2013-11-07 12:45:00,49.1,39.2,30.25,NE,46,3.4,5.6,68,0.00,,,0.51,Meteorologica,2013-11-07 17:45:00,
2013-11-07 12:50:00,49.0,39.4,30.25,NE,36,2.1,5.2,69,0.00,,,0.51,Meteorologica,2013-11-07 17:50:00,
2013-11-07 12:55:00,49.3,39.8,30.24,ENE,63,1.6,6.8,69,0.00,,,0.51,Meteorologica,2013-11-07 17:55:00,
2013-11-07 12:58:00,49.6,40.5,30.24,NNE,28,2.9,4.4,70,0.00,,,0.51,Meteorologica,2013-11-07 17:58:00,
2013-11-07 13:03:00,49.9,40.0,30.24,ENE,73,3.4,4.3,68,0.00,,,0.51,Meteorologica,2013-11-07 18:03:00,
2013-11-07 13:08:00,50.4,39.5,30.24,NNE,29,1.9,5.1,65,0.00,,,0.51,Meteorologica,2013-11-07 18:08:00,
2013-11-07 13:13:00,50.4,39.1,30.23,ENE,60,1.8,5.6,64,0.00,,,0.51,Meteorologica,2013-11-07 18:13:00,
2013-11-07 13:18:00,50.6,39.5,30.23,NE,41,1.8,4.0,65,0.00,,,0.51,Meteorologica,2013-11-07 18:18:00,
2013-11-07 13:23:00,51.0,39.6,30.23,East,79,1.3,6.8,64,0.00,,,0.51,Meteorologica,2013-11-07 18:23:00,
2013-11-07 13:28:00,51.3,39.4,30.23,NNE,14,3.1,3.8,63,0.00,,,0.51,Meteorologica,2013-11-07 18:28:00,
2013-11-07 13:33:00,51.6,38.4,30.23,NE,43,4.7,5.0,60,0.00,,,0.51,Meteorologica,2013-11-07 18:33:00,
2013-11-07 13:38:00,51.5,38.8,30.23,NE,51,1.8,6.3,61,0.00,,,0.51,Meteorologica,2013-11-07 18:38:00,
2013-11-07 13:43:00,51.7,39.0,30.23,East,93,3.0,6.3,61,0.00,,,0.51,Meteorologica,2013-11-07 18:43:00,
2013-11-07 13:48:00,51.9,39.3,30.23,NE,50,0.8,6.4,61,0.00,,,0.51,Meteorologica,2013-11-07 18:48:00,
2013-11-07 13:53:00,52.0,39.1,30.22,North,9,0.0,5.3,61,0.00,,,0.51,Meteorologica,2013-11-07 18:53:00,
2013-11-07 13:58:00,52.3,38.2,30.22,NNE,25,2.4,4.3,58,0.00,,,0.51,Meteorologica,2013-11-07 18:58:00,
2013-11-07 14:03:00,52.6,38.9,30.22,NNE,23,0.3,5.0,59,0.00,,,0.51,Meteorologica,2013-11-07 19:03:00,
2013-11-07 14:08:00,52.8,38.3,30.22,NNE,17,4.7,6.2,57,0.00,,,0.51,Meteorologica,2013-11-07 19:08:00,
2013-11-07 14:13:00,53.2,38.0,30.22,North,5,3.9,7.1,56,0.00,,,0.51,Meteorologica,2013-11-07 19:13:00,
2013-11-07 14:18:00,53.4,38.0,30.22,NE,45,2.9,5.9,55,0.00,,,0.51,Meteorologica,2013-11-07 19:18:00,
2013-11-07 14:23:00,53.5,38.6,30.22,NNE,26,0.9,4.9,56,0.00,,,0.51,Meteorologica,2013-11-07 19:23:00,
2013-11-07 14:28:00,53.7,37.9,30.22,SSW,203,0.4,5.6,54,0.00,,,0.51,Meteorologica,2013-11-07 19:28:00,
2013-11-07 14:33:00,54.0,38.7,30.22,NNE,27,3.3,3.3,55,0.00,,,0.51,Meteorologica,2013-11-07 19:33:00,
2013-11-07 14:38:00,54.2,38.0,30.22,ENE,62,0.1,6.4,54,0.00,,,0.51,Meteorologica,2013-11-07 19:38:00,
2013-11-07 14:43:00,54.3,37.9,30.21,North,352,0.7,5.5,53,0.00,,,0.51,Meteorologica,2013-11-07 19:43:00,
2013-11-07 14:48:00,54.4,38.1,30.21,NNE,12,0.4,6.0,53,0.00,,,0.51,Meteorologica,2013-11-07 19:48:00,
2013-11-07 14:53:00,54.5,37.6,30.21,NNE,29,3.8,6.0,52,0.00,,,0.51,Meteorologica,2013-11-07 19:53:00,
2013-11-07 14:58:00,54.6,37.3,30.21,WSW,238,1.7,7.0,51,0.00,,,0.51,Meteorologica,2013-11-07 19:58:00,
2013-11-07 15:03:00,54.6,35.9,30.21,NE,42,1.1,7.6,49,0.00,,,0.51,Meteorologica,2013-11-07 20:03:00,
2013-11-07 15:08:00,54.8,36.8,30.21,NE,49,0.5,8.1,50,0.00,,,0.51,Meteorologica,2013-11-07 20:08:00,
2013-11-07 15:13:00,55.2,36.9,30.21,ENE,64,1.7,3.4,50,0.00,,,0.51,Meteorologica,2013-11-07 20:13:00,
2013-11-07 15:18:00,55.1,37.1,30.21,NNE,26,0.4,4.5,50,0.00,,,0.51,Meteorologica,2013-11-07 20:18:00,
2013-11-07 15:23:00,54.9,36.4,30.21,West,275,0.7,6.8,49,0.00,,,0.51,Meteorologica,2013-11-07 20:23:00,
2013-11-07 15:28:00,54.9,36.8,30.21,NNE,32,1.0,5.8,50,0.00,,,0.51,Meteorologica,2013-11-07 20:28:00,
2013-11-07 15:33:00,54.9,36.2,30.21,NNE,33,0.8,7.0,49,0.00,,,0.51,Meteorologica,2013-11-07 20:33:00,
2013-11-07 15:38:00,54.9,37.1,30.21,NE,40,2.8,3.0,50,0.00,,,0.51,Meteorologica,2013-11-07 20:38:00,
2013-11-07 15:43:00,54.8,36.3,30.21,NW,319,1.2,8.4,49,0.00,,,0.51,Meteorologica,2013-11-07 20:43:00,
2013-11-07 15:48:00,54.7,36.1,30.21,East,80,1.5,5.1,49,0.00,,,0.51,Meteorologica,2013-11-07 20:48:00,
2013-11-07 15:53:00,54.7,35.9,30.21,NNE,29,0.0,3.4,49,0.00,,,0.51,Meteorologica,2013-11-07 20:53:00,
2013-11-07 15:58:00,54.6,35.4,30.22,NNE,25,0.9,4.4,48,0.00,,,0.51,Meteorologica,2013-11-07 20:58:00,
2013-11-07 16:03:00,54.5,35.3,30.22,NE,38,0.0,4.5,48,0.00,,,0.51,Meteorologica,2013-11-07 21:03:00,
2013-11-07 16:08:00,54.3,35.2,30.22,SSW,208,2.1,5.8,48,0.00,,,0.51,Meteorologica,2013-11-07 21:08:00,
2013-11-07 16:13:00,54.2,35.5,30.22,NW,306,1.3,7.8,48,0.00,,,0.51,Meteorologica,2013-11-07 21:13:00,
2013-11-07 16:18:00,54.1,35.5,30.22,NNE,29,0.1,9.0,49,0.00,,,0.51,Meteorologica,2013-11-07 21:18:00,
2013-11-07 16:23:00,53.9,34.5,30.22,NNE,21,1.8,3.2,48,0.00,,,0.51,Meteorologica,2013-11-07 21:23:00,
2013-11-07 16:29:00,53.7,34.8,30.22,NE,49,0.0,6.6,48,0.00,,,0.51,Meteorologica,2013-11-07 21:29:00,
2013-11-07 16:34:00,53.5,34.4,30.22,NE,52,1.0,1.6,48,0.00,,,0.51,Meteorologica,2013-11-07 21:34:00,
2013-11-07 16:39:00,53.4,34.6,30.22,NE,47,1.4,4.2,48,0.00,,,0.51,Meteorologica,2013-11-07 21:39:00,
2013-11-07 16:44:00,53.4,34.4,30.22,NNE,23,2.0,3.5,48,0.00,,,0.51,Meteorologica,2013-11-07 21:44:00,
2013-11-07 16:49:00,53.2,33.5,30.22,NNE,29,0.0,7.3,47,0.00,,,0.51,Meteorologica,2013-11-07 21:49:00,
2013-11-07 16:54:00,53.1,34.5,30.22,ENE,71,0.5,4.6,49,0.00,,,0.51,Meteorologica,2013-11-07 21:54:00,
2013-11-07 16:59:00,53.0,33.7,30.22,ENE,62,1.3,6.4,47,0.00,,,0.51,Meteorologica,2013-11-07 21:59:00,
2013-11-07 17:04:00,52.9,33.9,30.22,North,11,0.0,4.5,48,0.00,,,0.51,Meteorologica,2013-11-07 22:04:00,
2013-11-07 17:09:00,52.8,33.6,30.22,NNE,26,0.2,4.2,48,0.00,,,0.51,Meteorologica,2013-11-07 22:09:00,
2013-11-07 17:14:00,52.7,33.1,30.22,NNE,16,1.3,4.0,47,0.00,,,0.51,Meteorologica,2013-11-07 22:14:00,
2013-11-07 17:19:00,52.7,33.5,30.22,NNE,29,0.1,5.0,48,0.00,,,0.51,Meteorologica,2013-11-07 22:19:00,
2013-11-07 17:24:00,52.7,33.6,30.23,North,10,2.9,3.3,48,0.00,,,0.51,Meteorologica,2013-11-07 22:24:00,
2013-11-07 17:29:00,52.4,33.4,30.23,East,79,1.3,4.7,48,0.00,,,0.51,Meteorologica,2013-11-07 22:29:00,
2013-11-07 17:34:00,52.3,33.1,30.23,North,2,0.3,4.2,48,0.00,,,0.51,Meteorologica,2013-11-07 22:34:00,
2013-11-07 17:39:00,52.3,33.6,30.23,NNE,29,1.9,3.8,48,0.00,,,0.51,Meteorologica,2013-11-07 22:39:00,
2013-11-07 17:44:00,52.0,33.5,30.23,NE,43,0.6,2.9,49,0.00,,,0.51,Meteorologica,2013-11-07 22:44:00,
2013-11-07 17:49:00,52.0,33.6,30.23,NNE,25,1.3,4.2,49,0.00,,,0.51,Meteorologica,2013-11-07 22:49:00,
2013-11-07 17:54:00,51.7,33.7,30.24,NNE,22,0.0,3.2,50,0.00,,,0.51,Meteorologica,2013-11-07 22:54:00,
2013-11-07 17:59:00,51.6,34.0,30.24,NE,40,2.4,0.0,50,0.00,,,0.51,Meteorologica,2013-11-07 22:59:00,
2013-11-07 18:04:00,51.3,33.6,30.24,NNE,31,2.1,3.5,50,0.00,,,0.51,Meteorologica,2013-11-07 23:04:00,
2013-11-07 18:09:00,51.2,33.3,30.24,NNE,25,0.0,3.3,50,0.00,,,0.51,Meteorologica,2013-11-07 23:09:00,
2013-11-07 18:15:00,51.1,34.0,30.24,NNE,25,0.0,3.8,51,0.00,,,0.51,Meteorologica,2013-11-07 23:15:00,
2013-11-07 18:20:00,50.9,34.1,30.24,NE,36,0.4,0.0,52,0.00,,,0.51,Meteorologica,2013-11-07 23:20:00,
2013-11-07 18:25:00,50.6,33.9,30.24,NE,36,0.0,3.5,52,0.00,,,0.51,Meteorologica,2013-11-07 23:25:00,
2013-11-07 18:30:00,50.5,33.9,30.24,NE,36,0.0,0.0,52,0.00,,,0.51,Meteorologica,2013-11-07 23:30:00,
2013-11-07 18:35:00,50.5,34.3,30.24,NE,36,0.0,0.0,53,0.00,,,0.51,Meteorologica,2013-11-07 23:35:00,
2013-11-07 18:40:00,50.3,34.2,30.25,NE,36,0.0,0.0,53,0.00,,,0.51,Meteorologica,2013-11-07 23:40:00,
2013-11-07 18:45:00,50.3,33.9,30.25,NE,36,0.0,0.0,53,0.00,,,0.51,Meteorologica,2013-11-07 23:45:00,
2013-11-07 18:50:00,50.1,33.8,30.25,NNE,21,0.0,0.0,53,0.00,,,0.51,Meteorologica,2013-11-07 23:50:00,
2013-11-07 18:55:00,50.2,33.9,30.26,NNE,22,0.0,4.4,53,0.00,,,0.51,Meteorologica,2013-11-07 23:55:00,
2013-11-07 19:00:00,50.0,33.9,30.25,NNE,33,1.3,4.5,53,0.00,,,0.51,Meteorologica,2013-11-08 00:00:00,
2013-11-07 19:05:00,50.0,34.6,30.25,NNE,16,0.0,2.9,55,0.00,,,0.51,Meteorologica,2013-11-08 00:05:00,
2013-11-07 19:10:00,49.7,34.4,30.25,ENE,64,1.0,1.9,55,0.00,,,0.51,Meteorologica,2013-11-08 00:10:00,
2013-11-07 19:15:00,49.6,34.3,30.25,NNE,26,0.3,5.0,55,0.00,,,0.51,Meteorologica,2013-11-08 00:15:00,
2013-11-07 19:21:00,49.6,34.5,30.26,NE,35,0.0,3.3,55,0.00,,,0.51,Meteorologica,2013-11-08 00:21:00,
2013-11-07 19:26:00,49.5,34.9,30.26,NE,35,0.0,0.9,56,0.00,,,0.51,Meteorologica,2013-11-08 00:26:00,
2013-11-07 19:31:00,49.3,35.1,30.26,NE,35,0.0,0.0,57,0.00,,,0.51,Meteorologica,2013-11-08 00:31:00,
2013-11-07 19:36:00,49.0,35.5,30.26,North,5,0.0,0.0,59,0.00,,,0.51,Meteorologica,2013-11-08 00:36:00,
2013-11-07 19:41:00,48.7,35.1,30.26,NE,45,0.1,1.6,59,0.00,,,0.51,Meteorologica,2013-11-08 00:41:00,
2013-11-07 19:46:00,48.6,35.2,30.26,NNE,22,0.0,2.0,59,0.00,,,0.51,Meteorologica,2013-11-08 00:46:00,
2013-11-07 19:51:00,48.4,34.6,30.26,North,354,2.2,2.2,58,0.00,,,0.51,Meteorologica,2013-11-08 00:51:00,
2013-11-07 19:56:00,48.3,34.5,30.26,NE,49,2.4,3.8,58,0.00,,,0.51,Meteorologica,2013-11-08 00:56:00,
2013-11-07 20:01:00,48.4,34.5,30.26,NNE,28,0.8,4.3,58,0.00,,,0.51,Meteorologica,2013-11-08 01:01:00,
2013-11-07 20:06:00,48.3,34.2,30.27,NW,313,0.3,2.9,57,0.00,,,0.51,Meteorologica,2013-11-08 01:06:00,
2013-11-07 20:11:00,48.2,34.5,30.27,NNE,22,0.0,6.2,58,0.00,,,0.51,Meteorologica,2013-11-08 01:11:00,
2013-11-07 20:16:00,48.1,34.7,30.27,NNE,22,0.0,0.0,59,0.00,,,0.51,Meteorologica,2013-11-08 01:16:00,
2013-11-07 20:21:00,47.9,34.7,30.27,NNE,22,0.0,0.0,59,0.00,,,0.51,Meteorologica,2013-11-08 01:21:00,
2013-11-07 20:26:00,47.8,35.0,30.27,North,11,0.0,4.3,60,0.00,,,0.51,Meteorologica,2013-11-08 01:26:00,
2013-11-07 20:31:00,47.6,34.7,30.27,North,11,0.0,0.0,60,0.00,,,0.51,Meteorologica,2013-11-08 01:31:00,
2013-11-07 20:36:00,47.4,34.8,30.27,North,11,0.0,0.0,61,0.00,,,0.51,Meteorologica,2013-11-08 01:36:00,
2013-11-07 20:42:00,47.2,34.9,30.27,NE,38,0.0,1.4,61,0.00,,,0.51,Meteorologica,2013-11-08 01:42:00,
2013-11-07 20:47:00,47.1,34.8,30.27,NE,39,0.0,2.0,61,0.00,,,0.51,Meteorologica,2013-11-08 01:47:00,
2013-11-07 20:52:00,47.0,35.0,30.27,NNE,22,0.0,1.7,62,0.00,,,0.51,Meteorologica,2013-11-08 01:52:00,
2013-11-07 20:57:00,46.9,35.0,30.28,NNE,22,0.0,0.0,62,0.00,,,0.51,Meteorologica,2013-11-08 01:57:00,
2013-11-07 21:02:00,46.7,34.8,30.28,NE,36,0.0,1.6,62,0.00,,,0.51,Meteorologica,2013-11-08 02:02:00,
2013-11-07 21:07:00,46.6,35.9,30.27,NE,36,0.0,0.0,65,0.00,,,0.51,Meteorologica,2013-11-08 02:07:00,
2013-11-07 21:12:00,46.3,35.5,30.28,NE,36,0.0,0.0,65,0.00,,,0.51,Meteorologica,2013-11-08 02:12:00,
2013-11-07 21:17:00,46.0,35.0,30.28,NE,36,0.0,0.0,65,0.00,,,0.51,Meteorologica,2013-11-08 02:17:00,
2013-11-07 21:22:00,46.0,34.8,30.28,NNE,33,0.0,2.0,64,0.00,,,0.51,Meteorologica,2013-11-08 02:22:00,
2013-11-07 21:27:00,45.8,34.8,30.28,NNE,33,0.0,0.0,65,0.00,,,0.51,Meteorologica,2013-11-08 02:27:00,
2013-11-07 21:32:00,45.7,34.4,30.28,NNE,33,0.0,0.0,64,0.00,,,0.51,Meteorologica,2013-11-08 02:32:00,
2013-11-07 21:37:00,45.7,34.5,30.28,NNE,33,0.0,0.0,64,0.00,,,0.51,Meteorologica,2013-11-08 02:37:00,
2013-11-07 21:42:00,45.7,34.3,30.29,NNE,26,0.0,2.5,64,0.00,,,0.51,Meteorologica,2013-11-08 02:42:00,
2013-11-07 21:47:00,45.6,33.9,30.29,NE,40,0.3,2.4,63,0.00,,,0.51,Meteorologica,2013-11-08 02:47:00,
2013-11-07 21:52:00,45.5,33.8,30.29,North,2,0.4,1.4,63,0.00,,,0.51,Meteorologica,2013-11-08 02:52:00,
2013-11-07 21:57:00,45.5,33.8,30.29,NNE,23,1.4,1.7,63,0.00,,,0.51,Meteorologica,2013-11-08 02:57:00,
2013-11-07 22:02:00,45.4,34.0,30.29,NNE,23,0.0,4.2,64,0.00,,,0.51,Meteorologica,2013-11-08 03:02:00,
2013-11-07 22:07:00,45.3,33.6,30.29,NNE,23,0.0,0.0,63,0.00,,,0.51,Meteorologica,2013-11-08 03:07:00,
2013-11-07 22:13:00,45.3,33.3,30.29,NNE,23,0.0,0.0,62,0.00,,,0.51,Meteorologica,2013-11-08 03:13:00,
2013-11-07 22:18:00,45.2,33.1,30.29,ENE,73,1.0,1.6,62,0.00,,,0.51,Meteorologica,2013-11-08 03:18:00,
2013-11-07 22:23:00,45.1,32.7,30.29,NNE,23,1.1,2.2,61,0.00,,,0.51,Meteorologica,2013-11-08 03:23:00,
2013-11-07 22:28:00,45.3,33.0,30.29,NNE,26,0.9,2.8,61,0.00,,,0.51,Meteorologica,2013-11-08 03:28:00,
2013-11-07 22:32:00,45.1,32.8,30.29,NNE,15,1.2,2.9,61,0.00,,,0.51,Meteorologica,2013-11-08 03:32:00,
2013-11-07 22:38:00,45.1,32.8,30.29,NNW,348,0.0,3.0,61,0.00,,,0.51,Meteorologica,2013-11-08 03:38:00,
2013-11-07 22:43:00,45.0,32.6,30.29,NNE,33,2.4,2.4,61,0.00,,,0.51,Meteorologica,2013-11-08 03:43:00,
2013-11-07 22:48:00,45.0,32.7,30.29,NNE,28,1.9,4.5,61,0.00,,,0.51,Meteorologica,2013-11-08 03:48:00,
2013-11-07 22:53:00,44.9,32.7,30.29,NE,39,1.1,3.0,61,0.00,,,0.51,Meteorologica,2013-11-08 03:53:00,
2013-11-07 22:58:00,44.8,32.7,30.29,NNE,21,2.4,3.9,62,0.00,,,0.51,Meteorologica,2013-11-08 03:58:00,
2013-11-07 23:03:00,44.8,32.6,30.29,NE,40,1.0,4.3,61,0.00,,,0.51,Meteorologica,2013-11-08 04:03:00,
2013-11-07 23:08:00,44.6,32.7,30.29,NE,40,0.0,2.5,62,0.00,,,0.51,Meteorologica,2013-11-08 04:08:00,
2013-11-07 23:13:00,44.4,32.9,30.29,NE,40,0.0,0.0,63,0.00,,,0.51,Meteorologica,2013-11-08 04:13:00,
2013-11-07 23:18:00,44.3,32.7,30.29,NE,40,0.0,0.0,63,0.00,,,0.51,Meteorologica,2013-11-08 04:18:00,
2013-11-07 23:23:00,44.1,32.6,30.30,NNE,23,1.7,0.0,63,0.00,,,0.51,Meteorologica,2013-11-08 04:23:00,
2013-11-07 23:28:00,44.2,32.7,30.30,NNE,30,2.2,4.3,63,0.00,,,0.51,Meteorologica,2013-11-08 04:28:00,
2013-11-07 23:33:00,44.1,32.6,30.30,NNE,32,1.0,4.8,63,0.00,,,0.51,Meteorologica,2013-11-08 04:33:00,
2013-11-07 23:38:00,44.0,32.6,30.30,NNE,29,0.0,6.3,63,0.00,,,0.51,Meteorologica,2013-11-08 04:38:00,
2013-11-07 23:43:00,44.0,32.7,30.30,North,357,1.7,2.3,64,0.00,,,0.51,Meteorologica,2013-11-08 04:43:00,
2013-11-07 23:48:00,43.9,32.3,30.30,NE,46,2.9,4.0,63,0.00,,,0.51,Meteorologica,2013-11-08 04:48:00,
2013-11-07 23:53:00,43.9,32.0,30.30,NNE,24,2.2,4.4,62,0.00,,,0.51,Meteorologica,2013-11-08 04:53:00,